Powrót do katalogu

TAURUS R/B

AktywnySSO
NORAD 26103·ROCKET BODY·🇺🇸 United States

Wystrzelony Mar 12, 2000 z Vandenberg Space Force Base

Loading…

Następne Przeloty (najbliższe 24 godziny)

TLE

ŚwieżeSource: Space-Track

Epoka: Sep 14, 2026, 07:34 UTC

1 26103U 00014B   26257.31561387  .00009247  00000-0  20938-3 0  9990
2 26103  97.4269 194.7946 0014751   6.7111 353.4331 15.43234916459171

Śledź TAURUS R/B w czasie rzeczywistym z AllMySat

Download on the App Store